Location: Olsztyn
(53.7767°N, 20.4765°E)
Time: 06:43:05
(UTC+01:00)

Transit 4A - Pass Details

Date: 10 October 2022
Orbit: 871 x 972 km, 66.8° (Epoch: 06 December)

Event Time Altitude Azimuth Distance (km) Brightness Sun altitude
Exits shadow 03:19:33 14° 327° (NNW) 2,312 10.0 -31.2°
Maximum altitude 03:24:02 33° 26° (NNE) 1,458 9.3 -30.6°
Drops below altitude 10° 03:29:15 10° 89° (E) 2,527 10.8 -30.0°
Sets 03:31:59 0° 99° (E) 3,460 11.5 -29.7°
